Location: Long Geng
(2.6167°N, 114.1333°E)
Time: 01:22:58
(UTC+00:00)

BREEZE M DEB (TANK) - Pass Details

Date: 14 May 2021
Orbit: 289 x 16145 km, 49.5° (Epoch: 17 June)

Event Time Altitude Azimuth Distance (km) Brightness Sun altitude
Rises 11:55:19 0° 322° (NW) 4,886 8.1 -21.6°
Reaches altitude 10° 11:59:57 10° 322° (NW) 2,635 6.6 -22.7°
Enters shadow 12:04:13 57° 323° (NW) 560 2.5 -23.7°
